Location: Oberstdorf
(47.4188°N, 10.2969°E)
Time: 12:46:18
(UTC+01:00)

ISS - Visible Passes

Search period start: 23 February 2017 00:00
Search period end: 05 March 2017 00:00
Orbit: 399 x 408 km, 51.6° (Epoch: 23 February)

Date Brightness Start Highest point End Pass type
(mag) Time Alt. Az. Time Alt. Az. Time Alt. Az.
01 Mar 0.0 05:57:29 10° SE 05:58:00 10° SE 05:58:30 10° ESE visible
03 Mar -0.9 05:46:23 10° S 05:48:55 21° SE 05:51:29 10° E visible
04 Mar -0.4 04:55:06 10° SSE 04:56:32 12° SE 04:57:59 10° ESE visible
